This demonstration page uses our WeatherBlox Daily Observations layout. Learn more.

Left ArrowRight Arrow

47.50024, -111.30081

Hourly Observations for April 17, 2018

Temp ( °F °C ) Dew Point ( °F °C ) Humidity (%) Winds ( mph kmh ) Pressure ( in mb ) Visibility ( mi km ) Precip ( " mm )
12:53 am 00:53 Mostly Clear 34 1.1 33 0.6 97 97 SW 5 7 29.75 1008 7 11 0.00 0.00
1:53 am 01:53 Clear 33 0.6 31 -0.6 92 92 SW 8 13 29.76 1008 10 16 0.00 0.00
2:53 am 02:53 Partly Cloudy 33 0.6 29 -1.7 85 85 SW 12 19 29.75 1008 10 16 0.00 0.00
3:53 am 03:53 Mostly Cloudy 32 0 27 -2.8 82 82 WSW 10 17 29.76 1008 10 16 0.00 0.00
4:53 am 04:53 Mostly Clear 31 -0.6 25 -3.9 79 79 SW 14 22 29.77 1008 10 16 0.00 0.00
5:53 am 05:53 Clear 30 -1.1 25 -3.9 82 82 SW 15 24 29.77 1008 10 16 0.00 0.00
6:53 am 06:53 Sunny 32 0 24 -4.4 73 73 SW 17 28 29.77 1008 10 16 0.00 0.00
7:53 am 07:53 Sunny 34 1.1 26 -3.3 73 73 SW 17 28 29.78 1009 10 16 0.00 0.00
8:53 am 08:53 Sunny 38 3.3 27 -2.8 65 65 SW 20 31 29.81 1010 10 16 0.00 0.00
9:53 am 09:53 Sunny 42 5.6 23 -5 47 47 W 20 31 29.81 1010 10 16 0.00 0.00
10:53 am 10:53 Sunny 45 7.2 19 -7.2 35 35 WSW 25 41 29.81 1010 10 16 0.00 0.00
11:53 am 11:53 Mostly Sunny 46 7.8 20 -6.7 35 35 W 25 41 29.83 1010 10 16 0.00 0.00
12:53 pm 12:53 Partly Cloudy 49 9.4 19 -7.2 31 31 WSW 26 43 29.83 1010 10 16 0.00 0.00
1:53 pm 13:53 Cloudy 47 8.3 19 -7.2 33 33 WSW 22 35 29.86 1011 10 16 0.00 0.00
2:53 pm 14:53 Mostly Cloudy 49 9.4 18 -7.8 29 29 WSW 22 35 29.87 1011 10 16 0.00 0.00
3:53 pm 15:53 Partly Cloudy 52 11.1 18 -7.8 26 26 W 28 44 29.88 1012 10 16 0.00 0.00
4:53 pm 16:53 Partly Cloudy 51 10.6 18 -7.8 27 27 W 30 48 29.91 1013 10 16 0.00 0.00
5:53 pm 17:53 Sunny 49 9.4 19 -7.2 31 31 W 23 37 29.95 1014 10 16 0.00 0.00
6:53 pm 18:53 Sunny 47 8.3 22 -5.6 37 37 WSW 24 39 29.99 1016 10 16 0.00 0.00
7:53 pm 19:53 Mostly Cloudy 42 5.6 24 -4.4 49 49 SW 17 28 30.04 1017 10 16 0.00 0.00
8:53 pm 20:53 Clear 37 2.8 24 -4.4 59 59 WSW 14 22 30.08 1019 10 16 0.00 0.00
9:53 pm 21:53 Cloudy 37 2.8 24 -4.4 59 59 WSW 16 26 30.10 1019 10 16 0.00 0.00
10:53 pm 22:53 Cloudy 35 1.7 23 -5 61 61 SW 15 24 30.12 1020 10 16 0.00 0.00
11:53 pm 23:53 Clear 34 1.1 23 -5 64 64 SW 15 24 30.15 1021 10 16 0.00 0.00

Powered by AerisWeather